Flag for Israel Weather past 2 weeks in Jerusalem, Israel

Now
54 °F

Clear.


Feels Like: 53 °F
Forecast: 46 / 60 °F
Wind: 5 mph from Southeast

Location: Ben Gurion International Airport

Current Time: Feb 1, 2015 at 9:53:32 PM

Latest Report: Feb 1, 2015 at 9:20 PM


Visibility: 10 mi

Pressure: 30.04 "Hg

Humidity: 63%

Dew point: 41 °F

Location of JerusalemLocation

Historic Weather in Jerusalem — Graph

°F

Jerusalem temperature yesterday

Maximum temperature yesterday: 68 °F (at 12:50 PM)
Minimum temperature yesterday: 46 °F (at 6:20 AM)
Average temperature yesterday: 56 °F

Past Weeks' High & Low Weather Summary

 TemperatureHumidityPressure
High77 °F (Jan 21, 2:20 PM)100% (Jan 18, 4:20 AM)30.33 "Hg (Jan 18, 4:20 AM)
Low43 °F (Jan 18, 4:20 AM)19% (Feb 1, 12:20 PM)29.86 "Hg (Jan 28, 12:50 AM)
Average57 °F66%30.08 "Hg
* Reported Jan 17 8:20 PM — Feb 1 8:20 PM, Jerusalem, Weather by CustomWeather, © 2014

Note: Actual official high and low records may vary slightly from our data, if they occured in-between our weather recording intervals... More about our weather records

Advertising

Jerusalem weather history for previous 24 hours

 ConditionsComfort  
Time TempWeatherWind HumidityBarometerVisibility
8:20 PM
Feb 1
55 °FClear.2 mph63%30.04 "Hg10 mi
7:50 PM57 °FClear.2 mph59%30.04 "Hg10 mi
7:20 PM59 °FClear.1 mph55%30.04 "Hg10 mi
6:50 PM61 °FClear.2 mph52%30.04 "Hg10 mi
6:20 PM63 °FClear.3 mph45%30.04 "Hg10 mi
5:50 PM63 °FClear.3 mph42%30.04 "Hg10 mi
5:20 PM64 °FClear.6 mph40%30.04 "Hg10 mi
4:50 PM66 °FSunny.8 mph43%30.01 "Hg10 mi
4:20 PM68 °FSunny.8 mph35%30.01 "Hg10 mi
3:50 PM70 °FSunny.7 mph31%30.01 "Hg10 mi
3:20 PM70 °FSunny.6 mph31%30.04 "Hg10 mi
2:50 PM70 °FSunny.7 mph31%30.04 "Hg10 mi
2:20 PM70 °FSunny.8 mph31%30.04 "Hg10 mi
1:50 PM70 °FSunny.8 mph29%30.04 "Hg10 mi
1:20 PM73 °FSunny.3 mph22%30.07 "Hg10 mi
12:50 PM72 °FSunny.5 mph23%30.07 "Hg10 mi
12:20 PM73 °FSunny.1 mph19%30.07 "Hg10 mi
11:50 AM72 °FSunny.1 mph22%30.07 "Hg10 mi
11:20 AM70 °FSunny.2 mph27%30.09 "Hg10 mi
10:50 AM68 °FSunny.2 mph28%30.09 "Hg10 mi
10:20 AM66 °FSunny.1 mph37%30.12 "Hg10 mi
9:50 AM64 °FSunny.1 mph40%30.12 "Hg10 mi
9:20 AM61 °FSunny.1 mph42%30.12 "Hg10 mi
8:50 AM57 °FSunny.1 mph44%30.12 "Hg10 mi
8:20 AM54 °FSunny.1 mph47%30.12 "Hg10 mi
7:50 AM48 °FSunny.3 mph62%30.12 "Hg10 mi
7:20 AM46 °FSunny.3 mph66%30.12 "Hg10 mi
6:50 AM43 °FSunny.1 mph76%30.12 "Hg10 mi
6:20 AM43 °FClear.2 mph71%30.09 "Hg10 mi
5:50 AM43 °FClear.5 mph76%30.09 "Hg10 mi
5:20 AM45 °FClear.3 mph71%30.09 "Hg10 mi
4:50 AM45 °FClear.2 mph71%30.09 "Hg10 mi
4:20 AM45 °FClear.2 mph71%30.09 "Hg10 mi
3:50 AM45 °FClear.3 mph71%30.09 "Hg10 mi
3:20 AM45 °FClear.5 mph71%30.12 "Hg10 mi
2:50 AM46 °FClear.5 mph71%30.12 "Hg10 mi
2:20 AM46 °FClear.3 mph71%30.12 "Hg10 mi
1:50 AM46 °FClear.3 mph71%30.15 "Hg10 mi
1:20 AM46 °FClear.3 mph71%30.12 "Hg10 mi
12:50 AM46 °FClear.2 mph76%30.15 "Hg10 mi
12:20 AM48 °FClear.1 mph71%30.15 "Hg10 mi
11:50 PM
Jan 31
48 °FClear.5 mph71%30.15 "Hg10 mi
11:20 PM50 °FClear.5 mph67%30.15 "Hg10 mi
10:50 PM50 °FClear.2 mph67%30.15 "Hg10 mi
10:20 PM50 °FClear.5 mph67%30.15 "Hg10 mi
9:50 PM52 °FClear.7 mph62%30.15 "Hg10 mi
9:20 PM52 °FClear.5 mph62%30.15 "Hg10 mi
Weather by CustomWeather, © 2014

See weather overviewHow to use our weather pages